Location: Recife
(8.0585°S, 34.8848°W)
Time: 13:08:24
(UTC-03:00)

Tiros 1 despin weight - Pass Details

Date: 23 April 2026
Orbit: 555 x 591 km, 48.2° (Epoch: 14 May)

Event Time Altitude Azimuth Distance (km) Brightness Sun altitude
Rises 08:22:22 0° 199° (SSW) 2,753 ? 41.7°
Reaches altitude 10° 08:25:06 10° 182° (S) 1,848 ? 42.4°
Maximum altitude 08:28:16 20° 133° (SE) 1,297 ? 43.1°
Drops below altitude 10° 08:31:25 10° 84° (E) 1,831 ? 43.8°
Sets 08:34:06 0° 67° (ENE) 2,719 ? 44.4°
